Regional Weather Roundup
Issued by NWS

Home | Current Version | Previous Version | Graphics & Text | Print | Product List | Glossary On
Versions: 1 2 3 4 5 6 7 8 9 10 11 12 13 14 15 16 17 18 19 20 21 22 23 24 25 26 27 28 29 30 31 32 33 34 35 36 37 38 39 40 41 42 43 44 45 46 47 48 49 50
000
ASUS43 KIND 272209
RWRIN

WEATHER ROUNDUP FOR INDIANA
NATIONAL WEATHER SERVICE INDIANAPOLIS IN
600 PM EDT WED JUL 27 2016

NOTE: "FAIR" INDICATES FEW OR NO CLOUDS BELOW 12,000 FEET WITH NO
SIGNIFICANT WEATHER AND/OR OBSTRUCTIONS TO VISIBILITY.

* - STATION DOES NOT REPORT WEATHER SUCH AS PRECIPITATION OR FOG.

+ - STATION NOT QUALITY CONTROLLED BY THE NATIONAL WEATHER SERVICE.
    USE DATA WITH CAUTION...ESPECIALLY DEWPOINT AND RELATIVE
    HUMIDITY OBSERVATIONS.

INZ001>003-010>013-019-020-272300-
NORTHWEST INDIANA

CITY           SKY/WX    TMP DP  RH WIND       PRES   REMARKS
GARY /AIRPORT/ MOSUNNY   86  66  51 NE5       29.94S
KNOX *+        SUNNY     84  52  32 CALM      29.94F
LA PORTE +     SUNNY     86  68  53 NW5       29.96S
MICHIGAN CITY+ SUNNY     84  64  51 NE7       29.95F
MONTICELLO +   MOSUNNY   85  61  44 SW3       29.94F
RENSSELAER +   MOSUNNY   84  64  51 CALM      29.95F
VALPARAISO     MOSUNNY   86  65  49 S7        29.95S

$$

LMZ046-743>745-272300-
SOUTHERN LAKE MICHIGAN

STATION/POSITION TIME  TEMP    WIND        PRES    WAVE
                       AIR SEA DIR/SP/G            HT
                 (UTC) (F)     (DEG/KT/KT) (MB)    (FT)
BURNS HARBOR     2100   80      60/ 10/ 11 1014.6F
MICHIGAN CITY    2100   78      40/ 10/ 10   N/A
5NW MICH CITY    2200   79 78   60/  8/  8   N/A     0

$$

INZ004-005-014>016-021>024-272300-
NORTH CENTRAL INDIANA

CITY           SKY/WX    TMP DP  RH WIND       PRES   REMARKS
ELKHART        MOSUNNY   86  73  66 N12       29.95F
GOSHEN         MOSUNNY   87  59  38 NE7       29.94F
LOGANSPORT +   SUNNY     84  63  48 SW5       29.96S
PERU/GRISSOM   SUNNY     87  66  50 VRB3      29.94F
ROCHESTER +    SUNNY     88  64  45 CALM      29.95F
SOUTH BEND     SUNNY     85  67  54 N12       29.95F
WARSAW +       SUNNY     84  64  51 N3        29.94F

$$

INZ006>009-017-018-025>027-272300-
NORTHEAST INDIANA

CITY           SKY/WX    TMP DP  RH WIND       PRES   REMARKS
ANGOLA *+        N/A     88  63  42 N7        29.96S
AUBURN +       SUNNY     90  52  27 W6        29.95F
FORT WAYNE     MOSUNNY   88  58  36 W7        29.95F
HUNTINGTON +   PTSUNNY   85  63  47 W3        29.95S

$$

INZ028-029-035-036-043>045-051>053-272300-
WEST CENTRAL INDIANA

CITY           SKY/WX    TMP DP  RH WIND       PRES   REMARKS
CRAWFORDSVL +  PTSUNNY   81  68  65 CALM      29.96S
GREENCASTLE +  CLOUDY    82  73  74 CALM      29.96F
LAFAYETTE      CLOUDY    83  69  62 SW6       29.95S
TERRE HAUTE    MOSUNNY   86  70  58 CALM      29.94F

$$

INZ030>032-037>040-046>048-054>057-064-065-272300-
CENTRAL INDIANA

CITY           SKY/WX    TMP DP  RH WIND       PRES   REMARKS
COLUMBUS       MOSUNNY   82  72  69 CALM      29.94F
FISHERS *+     SUNNY     86  68  54 NE3       29.94F
INDIANAPOLIS   PTSUNNY   87  66  49 S3        29.95F
-EAGLE CREEK   SUNNY     87  64  46 N6        29.94F
KOKOMO *+      MOSUNNY   90  64  43 N6        29.95F
MARION +       HAZE      85  65  51 SW5       29.96F VSB 1
MT COMFORT *+  SUNNY     84  66  54 E3        29.96F
SHELBYVILLE    SUNNY     88  67  49 VRB3      29.94F
ZIONSVILLE +   MOSUNNY   81  67  61 N5        29.96F

$$

INZ033-034-041-042-049-050-058-059-272300-
EAST CENTRAL INDIANA

CITY           SKY/WX    TMP DP  RH WIND       PRES   REMARKS
MUNCIE         SUNNY     88  61  40 NW6       29.96F

$$

INZ060-061-067>069-081>083-085>088-272300-
SOUTHWEST INDIANA

CITY           SKY/WX    TMP DP  RH WIND       PRES   REMARKS
EVANSVILLE     PTSUNNY   80  74  81 NE7       29.92S THUNDER
HUNTINGBURG *+ PTSUNNY   79  73  83 NW6       29.94R
WASHINGTON +   LGT RAIN  82  78  87 MISG      29.94S

$$

INZ062-063-066-070>080-084-089>092-272300-
SOUTH CENTRAL AND SOUTHEAST INDIANA

CITY           SKY/WX    TMP DP  RH WIND       PRES   REMARKS
BLOOMINGTON    CLOUDY    85  70  60 NW3       29.96F
MADISON *+     MOSUNNY   86  68  54 CALM      29.98R
NORTH VERNON + CLOUDY    84  75  74 CALM      29.95F
SEYMOUR +      CLOUDY    86  70  58 N5        29.94F

$$





USA.gov is the U.S. government's official web portal to all federal, state and local government web resources and services.